Location: Unspecified
(0.0000°N, 0.0000°E)
Time: 21:35:23
(UTC+00:00)

Envisat - Pass Details

Date: 14 February 2019
Orbit: 764 x 766 km, 98.1° (Epoch: 16 October)

Event Time Altitude Azimuth Distance (km) Brightness Sun altitude
Rises 19:00:59 0° 165° (SSE) 3,231 6.2 -11.4°
Reaches altitude 10° 19:03:18 10° 163° (SSE) 2,302 5.4 -12.0°
Maximum altitude 19:08:22 74° 78° (ENE) 794 2.9 -13.2°
Drops below altitude 10° 19:13:24 10° 353° (N) 2,291 5.4 -14.4°
Sets 19:15:42 0° 352° (N) 3,214 6.2 -15.0°
